Lexington Weather

Lexington, Massachusetts, USA

32°F
11/15/2019 2:45am 
  • Lexington Conditions: Mostly cloudy
  • Temperature: 32.2°F / 0.1°CWarmer 1.6°F than last hour.
  • Dew Point: 29.7°FIncreased 1.7°Fsince last hour.
  • Relative Humidity: 90
  • Wind: Calm, 10-min avg: Calm, gust: 3 mph
  • Barometer: 30.18 in Steady
  • Visibility: 10 miles
  • Snow Today: 0.0 in
  •   

Regional Weather Roundup
for Boston / Norton, MA

        
000
ASUS41 KBOX 122110
RWRBOX

REGIONAL WEATHER ROUNDUP
NATIONAL WEATHER SERVICE BOSTON/NORTON MA
400 PM EST TUE NOV 12 2019

NOTE:  "FAIR" INDICATES FEW OR NO CLOUDS BELOW 12,000 FEET WITH NO 
SIGNIFICANT WEATHER AND/OR OBSTRUCTIONS TO VISIBILITY.

MAZALL-122200-
EASTERN MASSACHUSETTS
  
CITY           SKY/WX    TMP DP  RH WIND       PRES   REMARKS
BOSTON         CLOUDY    34  22  61 NW21G30   29.85R WCI  22          
BEVERLY        CLOUDY    31  22  69 NW14      29.82R HAZE    WCI  21  
LAWRENCE       CLOUDY    30  20  66 W10G20    29.85R WCI  21          
BEDFORD        MOCLDY    31  19  61 NW17G26   29.84R WCI  19          
BLUE HILL      NOT AVBL                                               
NORWOOD        LGT SNOW  33  26  75 NW12G20   29.85R WCI  24          
MARSHFIELD     LGT SNOW  34  32  93 NW8G17    29.82R WCI  27          
PLYMOUTH       LGT SNOW  33  30  88 NW12G23   29.81R FOG     WCI  24  
TAUNTON        LGT SNOW  34  29  82 NW14G24   29.83R WCI  25          
NEW BEDFORD    FLURRIES  34  31  88 NW13G20   29.82R WCI  25          
$$

MAZALL-122200-
CAPE COD AND THE ISLANDS
  
CITY           SKY/WX    TMP DP  RH WIND       PRES   REMARKS
FALMOUTH       LGT SNOW  36  34  93 MISG      29.80R FOG              
HYANNIS        LGT RAIN  40  36  86 NW12G20   29.77R                  
CHATHAM        LGT RAIN  41  38  89 NW9G25    29.79R                  
PROVINCETOWN   LGT RAIN  36  34  92 NW26G33   29.80R WCI  24          
NANTUCKET      LGT RAIN  45  42  89 NW15      29.78R                  
MARTHAS VNYRD  RAIN      37  34  89 NW16      29.82R WCI  28          
$$
 
MAZALL-122200-
CENTRAL AND WESTERN MASSACHUSETTS
  
CITY           SKY/WX    TMP DP  RH WIND       PRES   REMARKS
WORCESTER      CLOUDY    26  18  71 W14G25    29.83R WCI  14          
FITCHBURG      CLOUDY    29  16  58 NW17      29.87R WCI  17          
ORANGE         FAIR      29  17  61 NW13      29.88R WCI  19          
SPRINGFIELD    MOCLDY    28  17  61 W14       29.91R WCI  17          
WESTFIELD      FAIR      27  15  61 NW20      29.93R WCI  13          
NORTH ADAMS    FLURRIES  25  15  66 W18       29.93R WCI  11          
PITTSFIELD     MOCLDY    23  14  68 W9        29.89R WCI  13          
$$
 
RIZALL-122200-
RHODE ISLAND
  
CITY           SKY/WX    TMP DP  RH WIND       PRES   REMARKS
PROVIDENCE     LGT SNOW  32  28  85 NW15G25   29.87R FOG     WCI  22  
NEWPORT        FLURRIES  35  29  78 NW23G32   29.83R WCI  23          
BLOCK ISLAND   LGT SNOW  32  30  92 NW16G24   29.86R FOG     WCI  21  
SMITHFIELD     FLURRIES  30  27  86 NW9       29.85R WCI  22          
WESTERLY       LGT SNOW  33  26  75 NW10G20   29.88R WCI  25          
$$
 
CTZALL-122200-
CONNECTICUT
  
CITY           SKY/WX    TMP DP  RH WIND       PRES   REMARKS
BRADLEY INTL   MOCLDY    30  15  53 NW23G29   29.93R WCI  17          
HARTFORD       MOCLDY    30  17  58 N12       29.95R WCI  20          
BRIDGEPORT     CLOUDY    33  21  61 NW17      29.94R WCI  22          
DANBURY        FAIR      30  17  58 NW13G20   29.95R WCI  20          
GROTON         CLOUDY    32  22  66 NW21G31   29.88R WCI  20          
NEW HAVEN      CLOUDY    35  17  47 NW13G21   29.94R WCI  26          
CHESTER        FAIR      30  18  59 NW12G25   29.89R WCI  21          
MERIDEN        CLOUDY    30  15  53 N12G22    29.94R WCI  20          
WILLIMANTIC    CLOUDY    29  19  66 NW15G25   29.92R WCI  18          
OXFORD         MOCLDY    27  17  66 NW14G25   29.92R WCI  16          
$$

MEZ002-015-021-024-NHZ003-005-008-011-012-014-VTZ005-008-122200-
NORTHERN NEW ENGLAND
  
CITY           SKY/WX    TMP DP  RH WIND       PRES   REMARKS
PORTLAND ME    LGT SNOW  30  26  85 N13       29.77R FOG     WCI  20  
BANGOR ME      LGT SNOW  29  26  89 N12       29.71R VSB 1   WCI  19  
CONCORD NH     CLOUDY    27  18  69 NW15G26   29.84R WCI  15          
MANCHESTER NH  MOCLDY    30  19  63 NW16      29.84R WCI  19          
NASHUA NH      CLOUDY    29  19  66 NW18G25   29.86R WCI  16          
PORTSMOUTH NH  MOCLDY    29  19  66 W14G25    29.80R WCI  18          
JAFFREY NH     FAIR      26  16  65 NW8G16    29.83R WCI  18          
KEENE NH       FAIR      26  20  77 NW5       29.89R WCI  20          
BURLINGTON VT  MOCLDY    23   9  55 NW16G26   29.96R WCI  10          
MT. WASHINGTON BLWGSNOW   0   0 100 W70G79      N/A  VSB 0   WCI -35  
$$

NYZ052-076-122200-
EASTERN NEW YORK
  
CITY           SKY/WX    TMP DP  RH WIND       PRES   REMARKS
ALBANY         MOCLDY    29  15  56 NW20      30.00R WCI  16          
NEW YORK CITY  CLOUDY    35  19  52 NW22      29.97R WCI  23          
$$
 
ANZALL-122200-
MARINE OBSERVATIONS
  
STATION/POSITION TIME  TEMP    WIND        PRES    VSBY  WAVE
                       AIR SEA DIR/SP/G                  HT/PER
                 (UTC) (F)     (DEG/KT/KT) (MB)    (MI)  (FT/S)
BOSTON BUOY      2050   34 53  300/ 25/ 31 1008.7R         5/ 4
BUZZARDS BAY     2000          310/ 25/ 27 1009.0R
NANTUCKET SOUND  2040      53                N/A           2/ 4
MASS BAY-STELLWA NOT AVBL
ISLE OF SHOALS   2000   32     290/ 25/ 28 1007.6R
S OF BLOCK IS    2100      58                N/A          10/ 8
$$

......................KEY.........................
  SKY/WX - SKY CONDITION/PRESENT WEATHER
  TMP    - TEMPERATURE IN FAHRENHEIT
  DWPT   - DEWPOINT IN FAHRENHEIT
  RH     - RELATIVE HUMIDITY IN PERCENT
  WIND   - DIRECTION AND SPEED IN MPH
  PRES   - MEAN SEA LEVEL PRESSURE IN INCHES OF HG
  WCI    - WIND CHILL INDEX
  VSB    - VISIBILITY IN MILES
  HX     - HEAT INDEX
  TC     - TEMPERATURE IN CELSIUS
  VRB    - VARIABLE WIND DIRECTION
  N/A    - NOT AVAILABLE
  
      

Other recent Regional Weather Roundups

Fri Nov 15, 2:10am

Fri Nov 15, 2:00am

Fri Nov 15, 1:10am

Fri Nov 15, 1:00am

Fri Nov 15, 12:10am

Fri Nov 15, 12:00am

Thu Nov 14, 11:10pm

Thu Nov 14, 11:00pm

Thu Nov 14, 10:10pm

Thu Nov 14, 10:00pm

Thu Nov 14, 9:10pm

Thu Nov 14, 9:00pm

Thu Nov 14, 8:10pm

Thu Nov 14, 8:00pm

Thu Nov 14, 7:10pm

Thu Nov 14, 7:00pm

Thu Nov 14, 6:10pm

Thu Nov 14, 6:01pm

Thu Nov 14, 5:10pm

Thu Nov 14, 5:00pm

Thu Nov 14, 4:10pm

Thu Nov 14, 4:00pm

Thu Nov 14, 3:10pm

Thu Nov 14, 3:00pm

Thu Nov 14, 2:10pm

Thu Nov 14, 2:00pm

Thu Nov 14, 1:10pm

Thu Nov 14, 1:00pm

Thu Nov 14, 12:10pm

Thu Nov 14, 12:01pm

Thu Nov 14, 11:10am

Thu Nov 14, 11:00am

Thu Nov 14, 10:10am

Thu Nov 14, 10:01am

Thu Nov 14, 9:10am

Thu Nov 14, 9:00am

Thu Nov 14, 8:10am

Thu Nov 14, 8:00am

Thu Nov 14, 7:10am

Thu Nov 14, 7:00am

Thu Nov 14, 6:10am

Thu Nov 14, 6:00am

Thu Nov 14, 5:10am

Thu Nov 14, 5:00am

Thu Nov 14, 4:10am

Thu Nov 14, 4:00am

Thu Nov 14, 3:10am

Thu Nov 14, 3:00am

Thu Nov 14, 2:10am

Thu Nov 14, 2:00am

Thu Nov 14, 1:10am

Thu Nov 14, 1:00am

Thu Nov 14, 12:10am

Thu Nov 14, 12:00am

Wed Nov 13, 11:10pm

Wed Nov 13, 11:00pm

Wed Nov 13, 10:10pm

Wed Nov 13, 10:00pm

Wed Nov 13, 9:10pm

Wed Nov 13, 9:00pm

Wed Nov 13, 8:10pm

Wed Nov 13, 8:00pm

Wed Nov 13, 7:10pm

Wed Nov 13, 7:00pm

Wed Nov 13, 6:10pm

Wed Nov 13, 6:01pm

Wed Nov 13, 5:10pm

Wed Nov 13, 5:00pm

Wed Nov 13, 4:10pm

Wed Nov 13, 4:00pm

Wed Nov 13, 3:10pm

Wed Nov 13, 3:01pm

Wed Nov 13, 2:10pm

Wed Nov 13, 2:01pm

Wed Nov 13, 1:10pm

Wed Nov 13, 1:00pm

Wed Nov 13, 12:10pm

Wed Nov 13, 12:01pm

Wed Nov 13, 11:10am

Wed Nov 13, 11:00am

Wed Nov 13, 10:10am

Wed Nov 13, 10:00am

Wed Nov 13, 9:10am

Wed Nov 13, 9:00am

Wed Nov 13, 8:10am

Wed Nov 13, 8:00am

Wed Nov 13, 7:10am

Wed Nov 13, 7:00am

Wed Nov 13, 6:10am

Wed Nov 13, 6:00am

Wed Nov 13, 5:10am

Wed Nov 13, 5:00am

Wed Nov 13, 4:10am

Wed Nov 13, 4:00am

Wed Nov 13, 3:10am

Wed Nov 13, 3:00am

Wed Nov 13, 2:10am

Wed Nov 13, 2:00am

Wed Nov 13, 1:10am

Wed Nov 13, 1:00am

Wed Nov 13, 12:10am

Wed Nov 13, 12:00am

Tue Nov 12, 11:10pm

Tue Nov 12, 11:00pm

Tue Nov 12, 10:10pm

Tue Nov 12, 10:00pm

Tue Nov 12, 9:10pm

Tue Nov 12, 9:00pm

Tue Nov 12, 8:10pm

Tue Nov 12, 8:00pm

Tue Nov 12, 7:10pm

Tue Nov 12, 7:01pm

Tue Nov 12, 6:10pm

Tue Nov 12, 6:01pm

Tue Nov 12, 5:10pm

Tue Nov 12, 5:01pm

Tue Nov 12, 4:01pm

Tue Nov 12, 3:10pm

Tue Nov 12, 3:00pm

Tue Nov 12, 2:10pm

Tue Nov 12, 2:00pm

Tue Nov 12, 1:10pm

Tue Nov 12, 1:00pm

Tue Nov 12, 12:10pm

Tue Nov 12, 12:00pm

Tue Nov 12, 11:10am

Tue Nov 12, 11:00am

Tue Nov 12, 10:10am

Tue Nov 12, 10:01am

Tue Nov 12, 9:10am

Tue Nov 12, 9:00am

Tue Nov 12, 8:10am

Tue Nov 12, 8:00am

Tue Nov 12, 7:10am

Tue Nov 12, 7:00am

Tue Nov 12, 6:10am

Tue Nov 12, 6:00am

Tue Nov 12, 5:10am

Tue Nov 12, 5:01am

Tue Nov 12, 4:10am

Tue Nov 12, 4:00am

Tue Nov 12, 3:10am

Tue Nov 12, 3:01am

Meta data:

ID: 60bcc094-66cc-4484-9482-47f0143dc0f0
Link: https://api.weather.gov/products/60bcc094-66cc-4484-9482-47f0143dc0f0